Time,TemperatureF,DewpointF,PressureIn,WindDirection,WindDirectionDegrees,WindSpeedMPH,WindSpeedGustMPH,Humidity,HourlyPrecipIn,Conditions,Clouds,dailyrainin,SoftwareType,DateUTC
2013-05-26 00:00:00,74.2,63.4,30.07,ESE,120,7.0,7.0,69,0.00,,,0.00,Wunderground v.1.15,2013-05-26 04:00:00,
2013-05-26 00:05:00,74.0,63.6,30.07,East,81,6.0,9.0,70,0.00,,,0.00,Wunderground v.1.15,2013-05-26 04:05:00,
2013-05-26 00:10:00,74.0,63.6,30.07,East,95,6.0,6.0,70,0.00,,,0.00,Wunderground v.1.15,2013-05-26 04:10:00,
2013-05-26 00:20:00,73.9,63.9,30.08,East,85,6.0,6.0,71,0.00,,,0.00,Wunderground v.1.15,2013-05-26 04:20:00,
2013-05-26 00:30:00,73.5,63.5,30.08,East,98,7.0,11.0,71,0.00,,,0.00,Wunderground v.1.15,2013-05-26 04:30:00,
2013-05-26 00:35:00,73.5,63.9,30.08,East,84,6.0,11.0,72,0.00,,,0.00,Wunderground v.1.15,2013-05-26 04:35:00,
2013-05-26 00:45:00,73.2,63.6,30.08,ENE,76,5.0,6.0,72,0.00,,,0.00,Wunderground v.1.15,2013-05-26 04:45:00,
2013-05-26 00:50:00,73.2,63.6,30.08,ENE,76,4.0,8.0,72,0.00,,,0.00,Wunderground v.1.15,2013-05-26 04:50:00,
2013-05-26 01:00:00,72.8,63.6,30.08,ESE,103,4.0,4.0,73,0.00,,,0.00,Wunderground v.1.15,2013-05-26 05:00:00,
2013-05-26 01:05:00,72.7,63.5,30.08,ESE,122,3.0,19.0,73,0.00,,,0.00,Wunderground v.1.15,2013-05-26 05:05:00,
2013-05-26 01:10:00,72.5,63.4,30.08,East,84,3.0,19.0,73,0.00,,,0.00,Wunderground v.1.15,2013-05-26 05:10:00,
2013-05-26 01:15:00,72.5,63.7,30.09,East,99,2.0,19.0,74,0.00,,,0.00,Wunderground v.1.15,2013-05-26 05:15:00,
2013-05-26 01:25:00,72.3,63.5,30.09,ENE,78,3.0,19.0,74,0.00,,,0.00,Wunderground v.1.15,2013-05-26 05:25:00,
2013-05-26 01:35:00,72.1,63.4,30.08,ESE,113,4.0,19.0,74,0.00,,,0.00,Wunderground v.1.15,2013-05-26 05:35:00,
2013-05-26 01:40:00,72.1,63.4,30.08,ENE,71,5.0,19.0,74,0.00,,,0.00,Wunderground v.1.15,2013-05-26 05:40:00,
2013-05-26 01:50:00,71.8,63.4,30.08,ESE,103,4.0,4.0,75,0.00,,,0.00,Wunderground v.1.15,2013-05-26 05:50:00,
2013-05-26 02:00:00,71.6,63.3,30.08,East,99,3.0,3.0,75,0.00,,,0.00,Wunderground v.1.15,2013-05-26 06:00:00,
2013-05-26 02:05:00,71.5,63.5,30.08,East,89,4.0,4.0,76,0.00,,,0.00,Wunderground v.1.15,2013-05-26 06:05:00,
2013-05-26 02:15:00,71.3,63.3,30.07,East,82,2.0,19.0,76,0.00,,,0.00,Wunderground v.1.15,2013-05-26 06:15:00,
2013-05-26 02:20:00,71.3,63.3,30.07,East,80,2.0,2.0,76,0.00,,,0.00,Wunderground v.1.15,2013-05-26 06:20:00,
2013-05-26 02:30:00,70.9,63.0,30.06,East,80,3.0,19.0,76,0.00,,,0.00,Wunderground v.1.15,2013-05-26 06:30:00,
2013-05-26 02:35:00,70.9,63.0,30.06,East,92,4.0,19.0,76,0.00,,,0.00,Wunderground v.1.15,2013-05-26 06:35:00,
2013-05-26 02:45:00,70.8,63.2,30.06,East,84,4.0,19.0,77,0.00,,,0.00,Wunderground v.1.15,2013-05-26 06:45:00,
2013-05-26 02:50:00,70.8,63.2,30.06,NE,53,4.0,19.0,77,0.00,,,0.00,Wunderground v.1.15,2013-05-26 06:50:00,
2013-05-26 03:00:00,70.6,63.0,30.06,East,83,1.0,1.0,77,0.00,,,0.00,Wunderground v.1.15,2013-05-26 07:00:00,
2013-05-26 03:05:00,70.4,62.8,30.06,NE,46,1.0,3.0,77,0.00,,,0.00,Wunderground v.1.15,2013-05-26 07:05:00,
2013-05-26 03:15:00,70.3,62.7,30.06,East,95,2.0,2.0,77,0.00,,,0.00,Wunderground v.1.15,2013-05-26 07:15:00,
2013-05-26 03:20:00,70.1,62.6,30.06,ENE,57,2.0,2.0,77,0.00,,,0.00,Wunderground v.1.15,2013-05-26 07:20:00,
2013-05-26 03:30:00,69.8,62.6,30.06,East,101,2.0,2.0,78,0.00,,,0.00,Wunderground v.1.15,2013-05-26 07:30:00,
2013-05-26 03:35:00,69.8,63.0,30.06,East,95,1.0,2.0,79,0.00,,,0.00,Wunderground v.1.15,2013-05-26 07:35:00,
2013-05-26 03:45:00,69.4,63.0,30.06,ENE,57,1.0,6.0,80,0.00,,,0.00,Wunderground v.1.15,2013-05-26 07:45:00,
2013-05-26 03:55:00,69.1,62.7,30.06,ESE,108,0.0,0.0,80,0.00,,,0.00,Wunderground v.1.15,2013-05-26 07:55:00,
2013-05-26 04:00:00,69.1,62.7,30.06,NE,40,0.0,0.0,80,0.00,,,0.00,Wunderground v.1.15,2013-05-26 08:00:00,
2013-05-26 04:05:00,68.9,62.8,30.06,ENE,77,0.0,14.0,81,0.00,,,0.00,Wunderground v.1.15,2013-05-26 08:05:00,
2013-05-26 04:15:00,68.6,62.9,30.06,ENE,60,1.0,14.0,82,0.00,,,0.00,Wunderground v.1.15,2013-05-26 08:15:00,
2013-05-26 04:20:00,68.4,62.7,30.06,East,94,1.0,1.0,82,0.00,,,0.00,Wunderground v.1.15,2013-05-26 08:20:00,
2013-05-26 04:30:00,67.9,62.5,30.06,ENE,74,0.0,14.0,83,0.00,,,0.00,Wunderground v.1.15,2013-05-26 08:30:00,
2013-05-26 04:40:00,67.6,62.6,30.06,ENE,77,0.0,14.0,84,0.00,,,0.00,Wunderground v.1.15,2013-05-26 08:40:00,
2013-05-26 04:45:00,67.4,62.4,30.06,ENE,70,0.0,14.0,84,0.00,,,0.00,Wunderground v.1.15,2013-05-26 08:45:00,
2013-05-26 04:50:00,67.3,62.3,30.06,ENE,70,0.0,14.0,84,0.00,,,0.00,Wunderground v.1.15,2013-05-26 08:50:00,
2013-05-26 05:00:00,67.1,62.4,30.07,East,84,0.0,14.0,85,0.00,,,0.00,Wunderground v.1.15,2013-05-26 09:00:00,
2013-05-26 05:05:00,66.9,62.2,30.07,East,84,0.0,14.0,85,0.00,,,0.00,Wunderground v.1.15,2013-05-26 09:05:00,
2013-05-26 05:15:00,66.8,62.5,30.06,ENE,72,0.0,14.0,86,0.00,,,0.00,Wunderground v.1.15,2013-05-26 09:15:00,
2013-05-26 05:20:00,66.6,62.3,30.06,ESE,111,0.0,14.0,86,0.00,,,0.00,Wunderground v.1.15,2013-05-26 09:20:00,
2013-05-26 05:30:00,66.4,62.1,30.07,East,88,0.0,14.0,86,0.00,,,0.00,Wunderground v.1.15,2013-05-26 09:30:00,
2013-05-26 05:35:00,66.4,62.1,30.07,ENE,74,0.0,14.0,86,0.00,,,0.00,Wunderground v.1.15,2013-05-26 09:35:00,
2013-05-26 05:45:00,66.3,62.3,30.06,East,82,0.0,14.0,87,0.00,,,0.00,Wunderground v.1.15,2013-05-26 09:45:00,
2013-05-26 05:50:00,66.1,62.1,30.06,East,79,0.0,14.0,87,0.00,,,0.00,Wunderground v.1.15,2013-05-26 09:50:00,
2013-05-26 06:00:00,66.0,62.0,30.06,East,89,0.0,14.0,87,0.00,,,0.00,Wunderground v.1.15,2013-05-26 10:00:00,
2013-05-26 06:05:00,66.0,62.0,30.06,ENE,77,0.0,14.0,87,0.00,,,0.00,Wunderground v.1.15,2013-05-26 10:05:00,
2013-05-26 06:15:00,65.8,61.8,30.07,East,83,0.0,0.0,87,0.00,,,0.00,Wunderground v.1.15,2013-05-26 10:15:00,
2013-05-26 06:20:00,65.8,61.8,30.07,East,80,0.0,0.0,87,0.00,,,0.00,Wunderground v.1.15,2013-05-26 10:20:00,
2013-05-26 06:30:00,65.6,61.6,30.07,ENE,68,0.0,0.0,87,0.00,,,0.00,Wunderground v.1.15,2013-05-26 10:30:00,
2013-05-26 06:35:00,65.6,61.6,30.07,ENE,68,0.0,0.0,87,0.00,,,0.00,Wunderground v.1.15,2013-05-26 10:35:00,
2013-05-26 06:45:00,65.5,61.5,30.07,ENE,75,0.0,0.0,87,0.00,,,0.00,Wunderground v.1.15,2013-05-26 10:45:00,
2013-05-26 06:50:00,65.5,61.5,30.07,ENE,63,0.0,0.0,87,0.00,,,0.00,Wunderground v.1.15,2013-05-26 10:50:00,
2013-05-26 07:00:00,65.6,61.9,30.08,ENE,74,0.0,0.0,88,0.00,,,0.00,Wunderground v.1.15,2013-05-26 11:00:00,
2013-05-26 07:05:00,66.0,62.0,30.08,ENE,70,0.0,2.0,87,0.00,,,0.00,Wunderground v.1.15,2013-05-26 11:05:00,
2013-05-26 07:15:00,66.4,62.1,30.08,East,84,0.0,2.0,86,0.00,,,0.00,Wunderground v.1.15,2013-05-26 11:15:00,
2013-05-26 07:20:00,66.8,62.1,30.08,East,80,1.0,1.0,85,0.00,,,0.00,Wunderground v.1.15,2013-05-26 11:20:00,
2013-05-26 07:30:00,67.3,62.3,30.08,East,87,1.0,1.0,84,0.00,,,0.00,Wunderground v.1.15,2013-05-26 11:30:00,
2013-05-26 07:35:00,67.4,62.1,30.08,NNE,25,0.0,2.0,83,0.00,,,0.00,Wunderground v.1.15,2013-05-26 11:35:00,
2013-05-26 07:45:00,67.8,62.1,30.08,NE,51,1.0,2.0,82,0.00,,,0.00,Wunderground v.1.15,2013-05-26 11:45:00,
2013-05-26 07:50:00,67.9,61.9,30.08,ENE,77,1.0,7.0,81,0.00,,,0.00,Wunderground v.1.15,2013-05-26 11:50:00,
2013-05-26 08:00:00,68.4,62.3,30.09,ENE,68,1.0,1.0,81,0.00,,,0.00,Wunderground v.1.15,2013-05-26 12:00:00,
2013-05-26 08:05:00,68.6,62.2,30.09,ENE,60,1.0,5.0,80,0.00,,,0.00,Wunderground v.1.15,2013-05-26 12:05:00,
2013-05-26 08:15:00,69.4,62.2,30.10,NNE,16,1.0,2.0,78,0.00,,,0.00,Wunderground v.1.15,2013-05-26 12:15:00,
2013-05-26 08:20:00,69.9,62.4,30.10,ENE,68,1.0,1.0,77,0.00,,,0.00,Wunderground v.1.15,2013-05-26 12:20:00,
2013-05-26 08:30:00,70.8,62.1,30.10,NE,34,1.0,4.0,74,0.00,,,0.00,Wunderground v.1.15,2013-05-26 12:30:00,
2013-05-26 08:35:00,71.3,62.2,30.10,ENE,64,1.0,11.0,73,0.00,,,0.00,Wunderground v.1.15,2013-05-26 12:35:00,
2013-05-26 08:45:00,71.6,61.7,30.11,ENE,66,2.0,4.0,71,0.00,,,0.00,Wunderground v.1.15,2013-05-26 12:45:00,
2013-05-26 08:50:00,72.0,61.7,30.11,East,100,2.0,2.0,70,0.00,,,0.00,Wunderground v.1.15,2013-05-26 12:50:00,
2013-05-26 09:00:00,72.7,61.9,30.11,NE,44,2.0,5.0,69,0.00,,,0.00,Wunderground v.1.15,2013-05-26 13:00:00,
2013-05-26 09:05:00,73.0,61.8,30.11,ENE,77,3.0,5.0,68,0.00,,,0.00,Wunderground v.1.15,2013-05-26 13:05:00,
2013-05-26 09:15:00,73.7,60.8,30.11,East,96,2.0,3.0,64,0.00,,,0.00,Wunderground v.1.15,2013-05-26 13:15:00,
2013-05-26 09:20:00,73.9,60.5,30.11,East,101,4.0,13.0,63,0.00,,,0.00,Wunderground v.1.15,2013-05-26 13:20:00,
2013-05-26 09:30:00,75.1,60.7,30.11,NE,46,2.0,2.0,61,0.00,,,0.00,Wunderground v.1.15,2013-05-26 13:30:00,
2013-05-26 09:35:00,75.4,60.5,30.11,ENE,57,2.0,2.0,60,0.00,,,0.00,Wunderground v.1.15,2013-05-26 13:35:00,
2013-05-26 09:45:00,75.1,59.8,30.12,East,88,4.0,10.0,59,0.00,,,0.00,Wunderground v.1.15,2013-05-26 13:45:00,
2013-05-26 09:50:00,75.6,59.3,30.12,NE,49,4.0,4.0,57,0.00,,,0.00,Wunderground v.1.15,2013-05-26 13:50:00,
2013-05-26 10:00:00,76.5,59.6,30.12,NE,50,2.0,2.0,56,0.00,,,0.00,Wunderground v.1.15,2013-05-26 14:00:00,
2013-05-26 10:05:00,76.7,59.8,30.12,NE,46,3.0,3.0,56,0.00,,,0.00,Wunderground v.1.15,2013-05-26 14:05:00,
2013-05-26 10:15:00,76.3,58.9,30.12,NE,56,7.0,7.0,55,0.00,,,0.00,Wunderground v.1.15,2013-05-26 14:15:00,
2013-05-26 10:20:00,76.3,58.9,30.12,East,88,6.0,17.0,55,0.00,,,0.00,Wunderground v.1.15,2013-05-26 14:20:00,
2013-05-26 10:30:00,76.7,59.8,30.12,NNE,20,5.0,17.0,56,0.00,,,0.00,Wunderground v.1.15,2013-05-26 14:30:00,
2013-05-26 10:35:00,77.0,59.1,30.12,East,93,5.0,17.0,54,0.00,,,0.00,Wunderground v.1.15,2013-05-26 14:35:00,
2013-05-26 10:45:00,77.2,58.7,30.11,ENE,57,4.0,17.0,53,0.00,,,0.00,Wunderground v.1.15,2013-05-26 14:45:00,
2013-05-26 10:50:00,77.7,59.7,30.11,NE,47,3.0,17.0,54,0.00,,,0.00,Wunderground v.1.15,2013-05-26 14:50:00,
2013-05-26 11:00:00,78.1,60.1,30.11,ESE,114,2.0,17.0,54,0.00,,,0.00,Wunderground v.1.15,2013-05-26 15:00:00,
2013-05-26 11:05:00,77.9,59.4,30.11,NE,55,2.0,17.0,53,0.00,,,0.00,Wunderground v.1.15,2013-05-26 15:05:00,
2013-05-26 11:15:00,77.7,58.1,30.11,East,80,7.0,7.0,51,0.00,,,0.00,Wunderground v.1.15,2013-05-26 15:15:00,
2013-05-26 11:20:00,78.1,59.0,30.11,ESE,113,4.0,4.0,52,0.00,,,0.00,Wunderground v.1.15,2013-05-26 15:20:00,
2013-05-26 11:30:00,79.2,59.5,30.11,NE,38,2.0,2.0,51,0.00,,,0.00,Wunderground v.1.15,2013-05-26 15:30:00,
2013-05-26 11:35:00,79.2,59.0,30.11,NE,36,2.0,17.0,50,0.00,,,0.00,Wunderground v.1.15,2013-05-26 15:35:00,
2013-05-26 11:45:00,79.2,57.8,30.11,ENE,77,3.0,14.0,48,0.00,,,0.00,Wunderground v.1.15,2013-05-26 15:45:00,
2013-05-26 11:50:00,79.2,57.2,30.11,NE,44,3.0,17.0,47,0.00,,,0.00,Wunderground v.1.15,2013-05-26 15:50:00,
2013-05-26 12:00:00,80.1,56.2,30.11,East,89,4.0,4.0,44,0.00,,,0.00,Wunderground v.1.15,2013-05-26 16:00:00,
2013-05-26 12:10:00,80.1,52.9,30.11,ESE,122,5.0,7.0,39,0.00,,,0.00,Wunderground v.1.15,2013-05-26 16:10:00,
2013-05-26 12:15:00,80.3,54.5,30.10,East,85,5.0,7.0,41,0.00,,,0.00,Wunderground v.1.15,2013-05-26 16:15:00,
2013-05-26 12:25:00,81.4,57.4,30.10,NE,49,3.0,3.0,44,0.00,,,0.00,Wunderground v.1.15,2013-05-26 16:25:00,
2013-05-26 12:30:00,82.0,55.3,30.10,North,2,5.0,5.0,40,0.00,,,0.00,Wunderground v.1.15,2013-05-26 16:30:00,
2013-05-26 12:40:00,81.6,53.5,30.10,ENE,60,5.0,9.0,38,0.00,,,0.00,Wunderground v.1.15,2013-05-26 16:40:00,
2013-05-26 12:45:00,81.6,53.5,30.10,ENE,73,6.0,11.0,38,0.00,,,0.00,Wunderground v.1.15,2013-05-26 16:45:00,
2013-05-26 12:55:00,81.8,54.4,30.10,North,0,4.0,7.0,39,0.00,,,0.00,Wunderground v.1.15,2013-05-26 16:55:00,
2013-05-26 13:00:00,82.0,52.4,30.09,ENE,58,5.0,6.0,36,0.00,,,0.00,Wunderground v.1.15,2013-05-26 17:00:00,
2013-05-26 13:10:00,82.8,51.6,30.09,North,6,5.0,15.0,34,0.00,,,0.00,Wunderground v.1.15,2013-05-26 17:10:00,
2013-05-26 13:15:00,82.8,52.3,30.09,ESE,110,6.0,15.0,35,0.00,,,0.00,Wunderground v.1.15,2013-05-26 17:15:00,
2013-05-26 13:25:00,82.6,51.4,30.09,North,3,6.0,11.0,34,0.00,,,0.00,Wunderground v.1.15,2013-05-26 17:25:00,
2013-05-26 13:35:00,83.2,49.4,30.09,ESE,105,4.0,9.0,31,0.00,,,0.00,Wunderground v.1.15,2013-05-26 17:35:00,
2013-05-26 13:40:00,83.6,48.9,30.09,SE,131,5.0,5.0,30,0.00,,,0.00,Wunderground v.1.15,2013-05-26 17:40:00,
2013-05-26 13:45:00,83.6,48.9,30.09,SSE,150,6.0,6.0,30,0.00,,,0.00,Wunderground v.1.15,2013-05-26 17:45:00,
2013-05-26 13:55:00,84.3,45.7,30.09,NNE,27,3.0,15.0,26,0.00,,,0.00,Wunderground v.1.15,2013-05-26 17:55:00,
2013-05-26 14:00:00,84.7,48.0,30.09,NNE,23,4.0,4.0,28,0.00,,,0.00,Wunderground v.1.15,2013-05-26 18:00:00,
2013-05-26 14:10:00,85.1,48.3,30.09,NNW,346,3.0,3.0,28,0.00,,,0.00,Wunderground v.1.15,2013-05-26 18:10:00,
2013-05-26 14:20:00,85.7,48.8,30.08,North,2,3.0,3.0,28,0.00,,,0.00,Wunderground v.1.15,2013-05-26 18:20:00,
2013-05-26 14:25:00,85.3,49.4,30.08,SE,140,3.0,15.0,29,0.00,,,0.00,Wunderground v.1.15,2013-05-26 18:25:00,
2013-05-26 14:30:00,85.5,49.6,30.07,East,86,3.0,3.0,29,0.00,,,0.00,Wunderground v.1.15,2013-05-26 18:30:00,
2013-05-26 14:40:00,85.1,49.3,30.07,ENE,72,6.0,6.0,29,0.00,,,0.00,Wunderground v.1.15,2013-05-26 18:40:00,
2013-05-26 14:50:00,85.5,49.6,30.07,WSW,245,5.0,5.0,29,0.00,,,0.00,Wunderground v.1.15,2013-05-26 18:50:00,
2013-05-26 14:55:00,85.7,48.8,30.07,NE,45,5.0,15.0,28,0.00,,,0.00,Wunderground v.1.15,2013-05-26 18:55:00,
2013-05-26 15:05:00,86.3,48.4,30.06,NNE,21,5.0,6.0,27,0.00,,,0.00,Wunderground v.1.15,2013-05-26 19:05:00,
2013-05-26 15:10:00,86.3,48.4,30.06,NNE,27,4.0,4.0,27,0.00,,,0.00,Wunderground v.1.15,2013-05-26 19:10:00,
2013-05-26 15:20:00,86.3,47.4,30.06,NNE,25,5.0,5.0,26,0.00,,,0.00,Wunderground v.1.15,2013-05-26 19:20:00,
2013-05-26 15:25:00,86.7,47.7,30.06,NNE,12,3.0,5.0,26,0.00,,,0.00,Wunderground v.1.15,2013-05-26 19:25:00,
2013-05-26 15:35:00,87.2,48.1,30.05,North,0,3.0,3.0,26,0.00,,,0.00,Wunderground v.1.15,2013-05-26 19:35:00,
2013-05-26 15:45:00,86.5,49.5,30.05,SE,131,2.0,9.0,28,0.00,,,0.00,Wunderground v.1.15,2013-05-26 19:45:00,
2013-05-26 15:50:00,85.9,50.0,30.05,East,100,2.0,2.0,29,0.00,,,0.00,Wunderground v.1.15,2013-05-26 19:50:00,
2013-05-26 15:55:00,85.9,49.0,30.05,East,90,1.0,2.0,28,0.00,,,0.00,Wunderground v.1.15,2013-05-26 19:55:00,
2013-05-26 16:05:00,85.7,47.9,30.04,NE,36,7.0,19.0,27,0.00,,,0.00,Wunderground v.1.15,2013-05-26 20:05:00,
2013-05-26 16:15:00,85.9,49.0,30.04,NE,34,2.0,19.0,28,0.00,,,0.00,Wunderground v.1.15,2013-05-26 20:15:00,
2013-05-26 16:20:00,86.1,49.2,30.04,NE,37,3.0,3.0,28,0.00,,,0.00,Wunderground v.1.15,2013-05-26 20:20:00,
2013-05-26 16:25:00,86.1,48.2,30.04,ENE,69,2.0,19.0,27,0.00,,,0.00,Wunderground v.1.15,2013-05-26 20:25:00,
2013-05-26 16:35:00,85.7,48.8,30.03,ENE,70,4.0,4.0,28,0.00,,,0.00,Wunderground v.1.15,2013-05-26 20:35:00,
2013-05-26 16:45:00,85.7,49.8,30.03,NNE,30,5.0,19.0,29,0.00,,,0.00,Wunderground v.1.15,2013-05-26 20:45:00,
2013-05-26 16:50:00,85.5,49.6,30.03,ESE,117,6.0,6.0,29,0.00,,,0.00,Wunderground v.1.15,2013-05-26 20:50:00,
2013-05-26 17:00:00,85.9,50.0,30.03,ENE,61,5.0,5.0,29,0.00,,,0.00,Wunderground v.1.15,2013-05-26 21:00:00,
2013-05-26 17:05:00,85.7,50.7,30.03,ENE,70,5.0,21.0,30,0.00,,,0.00,Wunderground v.1.15,2013-05-26 21:05:00,
2013-05-26 17:10:00,85.7,50.7,30.03,NE,50,6.0,6.0,30,0.00,,,0.00,Wunderground v.1.15,2013-05-26 21:10:00,
2013-05-26 17:20:00,85.7,51.6,30.03,East,101,2.0,19.0,31,0.00,,,0.00,Wunderground v.1.15,2013-05-26 21:20:00,
2013-05-26 17:30:00,85.7,51.6,30.02,NNE,30,2.0,19.0,31,0.00,,,0.00,Wunderground v.1.15,2013-05-26 21:30:00,
2013-05-26 17:35:00,85.1,51.1,30.02,East,97,5.0,19.0,31,0.00,,,0.00,Wunderground v.1.15,2013-05-26 21:35:00,
2013-05-26 17:40:00,84.7,50.7,30.02,NE,39,8.0,8.0,31,0.00,,,0.00,Wunderground v.1.15,2013-05-26 21:40:00,
2013-05-26 17:50:00,84.7,51.6,30.02,ENE,65,3.0,3.0,32,0.00,,,0.00,Wunderground v.1.15,2013-05-26 21:50:00,
2013-05-26 18:00:00,84.7,51.6,30.02,ENE,58,3.0,3.0,32,0.00,,,0.00,Wunderground v.1.15,2013-05-26 22:00:00,
2013-05-26 18:05:00,84.5,51.4,30.02,NNE,18,3.0,19.0,32,0.00,,,0.00,Wunderground v.1.15,2013-05-26 22:05:00,
2013-05-26 18:15:00,84.1,51.1,30.01,ENE,70,4.0,14.0,32,0.00,,,0.00,Wunderground v.1.15,2013-05-26 22:15:00,
2013-05-26 18:20:00,84.0,51.0,30.01,ENE,58,5.0,5.0,32,0.00,,,0.00,Wunderground v.1.15,2013-05-26 22:20:00,
2013-05-26 18:30:00,84.0,51.0,30.01,ENE,67,3.0,3.0,32,0.00,,,0.00,Wunderground v.1.15,2013-05-26 22:30:00,
2013-05-26 18:35:00,84.0,51.0,30.01,NE,55,2.0,12.0,32,0.00,,,0.00,Wunderground v.1.15,2013-05-26 22:35:00,
2013-05-26 18:45:00,84.1,51.9,30.01,ESE,108,2.0,10.0,33,0.00,,,0.00,Wunderground v.1.15,2013-05-26 22:45:00,
2013-05-26 18:50:00,84.1,51.1,30.01,NNE,15,2.0,10.0,32,0.00,,,0.00,Wunderground v.1.15,2013-05-26 22:50:00,
2013-05-26 19:00:00,84.0,52.6,30.01,NE,51,2.0,2.0,34,0.00,,,0.00,Wunderground v.1.15,2013-05-26 23:00:00,
2013-05-26 19:05:00,83.8,52.4,30.01,NNE,31,2.0,18.0,34,0.00,,,0.00,Wunderground v.1.15,2013-05-26 23:05:00,
2013-05-26 19:15:00,83.4,51.3,30.01,NE,52,2.0,18.0,33,0.00,,,0.00,Wunderground v.1.15,2013-05-26 23:15:00,
2013-05-26 19:25:00,83.2,51.9,30.01,ENE,62,1.0,18.0,34,0.00,,,0.00,Wunderground v.1.15,2013-05-26 23:25:00,
2013-05-26 19:30:00,83.0,51.7,30.01,ENE,62,1.0,1.0,34,0.00,,,0.00,Wunderground v.1.15,2013-05-26 23:30:00,
2013-05-26 19:40:00,82.4,52.0,30.01,ENE,58,0.0,18.0,35,0.00,,,0.00,Wunderground v.1.15,2013-05-26 23:40:00,
2013-05-26 19:45:00,82.2,51.8,30.02,NE,51,0.0,18.0,35,0.00,,,0.00,Wunderground v.1.15,2013-05-26 23:45:00,
2013-05-26 19:55:00,81.8,52.2,30.02,ENE,60,0.0,18.0,36,0.00,,,0.00,Wunderground v.1.15,2013-05-26 23:55:00,
2013-05-26 20:05:00,81.2,53.2,30.02,ENE,60,0.0,18.0,38,0.00,,,0.00,Wunderground v.1.15,2013-05-27 00:05:00,
2013-05-26 20:10:00,81.1,53.8,30.02,ENE,60,0.0,18.0,39,0.00,,,0.00,Wunderground v.1.15,2013-05-27 00:10:00,
2013-05-26 20:20:00,80.3,53.8,30.02,ENE,60,0.0,18.0,40,0.00,,,0.00,Wunderground v.1.15,2013-05-27 00:20:00,
2013-05-26 20:25:00,79.9,54.1,30.02,ENE,60,0.0,18.0,41,0.00,,,0.00,Wunderground v.1.15,2013-05-27 00:25:00,
2013-05-26 20:35:00,79.4,55.0,30.02,ENE,60,0.0,18.0,43,0.00,,,0.00,Wunderground v.1.15,2013-05-27 00:35:00,
2013-05-26 20:45:00,78.6,54.9,30.02,ENE,60,0.0,18.0,44,0.00,,,0.00,Wunderground v.1.15,2013-05-27 00:45:00,
2013-05-26 20:50:00,78.1,55.0,30.02,East,88,0.0,18.0,45,0.00,,,0.00,Wunderground v.1.15,2013-05-27 00:50:00,
2013-05-26 21:00:00,77.7,55.3,30.03,ENE,63,0.0,18.0,46,0.00,,,0.00,Wunderground v.1.15,2013-05-27 01:00:00,
2013-05-26 21:05:00,77.4,55.6,30.03,ENE,63,0.0,18.0,47,0.00,,,0.00,Wunderground v.1.15,2013-05-27 01:05:00,
2013-05-26 21:15:00,77.0,55.8,30.03,NE,35,0.0,0.0,48,0.00,,,0.00,Wunderground v.1.15,2013-05-27 01:15:00,
2013-05-26 21:20:00,76.8,55.6,30.03,NE,55,0.0,0.0,48,0.00,,,0.00,Wunderground v.1.15,2013-05-27 01:20:00,
2013-05-26 21:30:00,76.5,55.9,30.04,ENE,67,1.0,1.0,49,0.00,,,0.00,Wunderground v.1.15,2013-05-27 01:30:00,
2013-05-26 21:40:00,76.7,56.7,30.04,ENE,77,1.0,1.0,50,0.00,,,0.00,Wunderground v.1.15,2013-05-27 01:40:00,
2013-05-26 21:45:00,76.8,56.8,30.04,East,82,2.0,2.0,50,0.00,,,0.00,Wunderground v.1.15,2013-05-27 01:45:00,
2013-05-26 21:50:00,77.0,57.5,30.04,East,98,3.0,3.0,51,0.00,,,0.00,Wunderground v.1.15,2013-05-27 01:50:00,
2013-05-26 22:00:00,77.0,58.0,30.05,ESE,117,3.0,3.0,52,0.00,,,0.00,Wunderground v.1.15,2013-05-27 02:00:00,
2013-05-26 22:10:00,76.7,59.3,30.05,ENE,73,2.0,5.0,55,0.00,,,0.00,Wunderground v.1.15,2013-05-27 02:10:00,
2013-05-26 22:15:00,76.5,59.1,30.05,ENE,66,2.0,5.0,55,0.00,,,0.00,Wunderground v.1.15,2013-05-27 02:15:00,
2013-05-26 22:25:00,76.0,59.7,30.05,East,94,1.0,5.0,57,0.00,,,0.00,Wunderground v.1.15,2013-05-27 02:25:00,
2013-05-26 22:30:00,75.8,60.0,30.06,ENE,62,2.0,2.0,58,0.00,,,0.00,Wunderground v.1.15,2013-05-27 02:30:00,
2013-05-26 22:40:00,75.3,60.5,30.06,ESE,105,2.0,2.0,60,0.00,,,0.00,Wunderground v.1.15,2013-05-27 02:40:00,
2013-05-26 22:50:00,74.9,61.0,30.07,NE,39,3.0,3.0,62,0.00,,,0.00,Wunderground v.1.15,2013-05-27 02:50:00,
2013-05-26 22:55:00,74.9,61.0,30.07,ENE,61,4.0,4.0,62,0.00,,,0.00,Wunderground v.1.15,2013-05-27 02:55:00,
2013-05-26 23:05:00,74.7,61.3,30.07,ESE,104,5.0,9.0,63,0.00,,,0.00,Wunderground v.1.15,2013-05-27 03:05:00,
2013-05-26 23:10:00,74.6,61.2,30.07,East,83,4.0,4.0,63,0.00,,,0.00,Wunderground v.1.15,2013-05-27 03:10:00,
2013-05-26 23:20:00,74.2,61.7,30.08,East,91,3.0,3.0,65,0.00,,,0.00,Wunderground v.1.15,2013-05-27 03:20:00,
2013-05-26 23:30:00,74.0,61.9,30.08,ENE,78,4.0,4.0,66,0.00,,,0.00,Wunderground v.1.15,2013-05-27 03:30:00,
2013-05-26 23:35:00,73.9,61.8,30.08,East,86,5.0,5.0,66,0.00,,,0.00,Wunderground v.1.15,2013-05-27 03:35:00,
2013-05-26 23:45:00,73.5,61.9,30.08,ENE,72,2.0,10.0,67,0.00,,,0.00,Wunderground v.1.15,2013-05-27 03:45:00,
2013-05-26 23:50:00,73.3,62.1,30.08,ESE,107,1.0,15.0,68,0.00,,,0.00,Wunderground v.1.15,2013-05-27 03:50:00,